Location: Oshawa
(43.9000°N, 78.8670°W)
Time: 02:38:05
(UTC-04:00)

Cosmos 1805 Rocket - Visible Passes

Search period start: 19 June 2018 00:00
Search period end: 29 June 2018 00:00
Orbit: 607 x 629 km, 82.5° (Epoch: 18 June)

Date Brightness Start Highest point End Pass type
(mag) Time Alt. Az. Time Alt. Az. Time Alt. Az.
19 Jun 4.5 01:24:02 33° ESE 01:24:28 34° E 01:28:27 10° NNE visible
19 Jun 5.2 03:01:10 19° W 03:02:24 22° WNW 03:05:50 10° NNW visible
20 Jun 3.6 01:40:58 60° SE 01:41:23 64° E 01:45:45 10° NNE visible
20 Jun 5.8 03:18:05 11° W 03:19:44 13° WNW 03:21:41 10° NW visible
21 Jun 5.9 00:20:45 11° E 00:21:14 11° E 00:22:26 10° ENE visible
21 Jun 3.5 01:57:53 61° SW 01:58:24 69° W 02:02:49 10° N visible
22 Jun 5.3 00:37:40 20° E 00:37:58 20° E 00:41:10 10° NE visible
22 Jun 4.4 02:14:47 34° W 02:15:31 37° WNW 02:19:39 10° N visible
23 Jun 4.5 00:54:33 35° E 00:54:48 35° E 00:58:50 10° NNE visible
23 Jun 5.2 02:31:41 20° W 02:32:45 21° WNW 02:36:10 10° NNW visible
24 Jun 3.5 01:11:26 64° ESE 01:11:44 66° E 01:16:08 10° NNE visible
24 Jun 5.9 02:48:34 11° W 02:50:06 12° WNW 02:52:00 10° NW visible
24 Jun 5.9 23:51:11 11° E 23:51:34 11° E 23:52:58 10° ENE visible
25 Jun 3.6 01:28:19 62° WSW 01:28:46 67° W 01:33:11 10° N visible
26 Jun 5.2 00:08:03 20° E 00:08:19 20° E 00:11:34 10° NE visible
26 Jun 4.5 01:45:10 34° W 01:45:54 36° WNW 01:50:00 10° N visible
27 Jun 4.4 00:24:54 36° E 00:25:09 36° E 00:29:13 10° NNE visible
27 Jun 5.3 02:02:01 19° W 02:03:07 21° WNW 02:06:30 10° NNW visible
28 Jun 3.5 00:41:44 64° SE 00:42:05 68° E 00:46:30 10° NNE visible
28 Jun 6.0 02:18:51 11° W 02:20:28 12° WNW 02:22:18 10° NW visible
28 Jun 5.8 23:21:26 12° E 23:21:54 12° E 23:23:29 10° ENE visible
